Location: *
(58.7167°N, 26.1833°E)
Time: 03:19:57
(UTC+00:00)

Cosmos 405 - Pass Details

Date: 25 August 2019
Orbit: 452 x 467 km, 81.3° (Epoch: 23 October)

Event Time Altitude Azimuth Distance (km) Brightness Sun altitude
Rises 19:03:09 0° 347° (NNW) 2,527 7.7 -10.4°
Reaches altitude 10° 19:05:21 10° 356° (N) 1,644 6.5 -10.6°
Maximum altitude 19:08:45 39° 66° (ENE) 723 3.7 -10.9°
Enters shadow 19:11:05 17° 129° (SE) 1,242 4.5 -11.1°
